TimeCST,TemperatureF,Dew PointF,Humidity,Sea Level PressureIn,VisibilityMPH,Wind Direction,Wind SpeedMPH,Gust SpeedMPH,PrecipitationIn,Events,Conditions,WindDirDegrees,DateUTC
12:53 AM,45.0,44.1,97,29.65,4.0,SSW,6.9,-,N/A,,Clear,210,2013-12-03 06:53:00
1:53 AM,46.0,45.0,96,29.62,4.0,South,10.4,-,N/A,,Clear,180,2013-12-03 07:53:00
2:53 AM,44.1,43.0,96,29.62,3.0,South,5.8,-,N/A,,Clear,170,2013-12-03 08:53:00
3:31 AM,43.0,43.0,100,29.63,2.0,South,5.8,-,N/A,,Clear,170,2013-12-03 09:31:00
3:41 AM,43.0,43.0,100,29.62,1.8,South,5.8,-,N/A,,Clear,170,2013-12-03 09:41:00
3:53 AM,43.0,42.1,97,29.62,1.0,South,4.6,-,N/A,,Clear,180,2013-12-03 09:53:00
4:03 AM,43.0,43.0,100,29.62,0.8,South,5.8,-,N/A,,Clear,180,2013-12-03 10:03:00
4:16 AM,43.0,42.1,97,29.61,1.2,SSE,5.8,-,N/A,,Clear,160,2013-12-03 10:16:00
4:34 AM,44.1,43.0,96,29.61,2.5,SSE,4.6,-,N/A,,Clear,150,2013-12-03 10:34:00
4:53 AM,44.1,44.1,100,29.62,2.0,SSE,5.8,-,N/A,,Clear,160,2013-12-03 10:53:00
5:01 AM,44.1,43.0,96,29.62,1.0,South,4.6,-,N/A,,Clear,170,2013-12-03 11:01:00
5:09 AM,44.1,43.0,96,29.62,0.5,South,4.6,-,N/A,Fog,Fog,170,2013-12-03 11:09:00
5:17 AM,43.0,43.0,100,29.62,0.2,South,4.6,-,N/A,Fog,Fog,170,2013-12-03 11:17:00
5:43 AM,44.1,43.0,96,29.62,1.0,SSE,6.9,-,N/A,,Mist,160,2013-12-03 11:43:00
5:49 AM,42.8,42.8,100,29.62,2.0,SSE,6.9,-,N/A,,Scattered Clouds,160,2013-12-03 11:49:00
5:53 AM,43.0,43.0,100,29.62,2.0,SSE,6.9,-,N/A,Fog,Patches of Fog,150,2013-12-03 11:53:00
6:39 AM,43.0,42.1,97,29.62,3.0,SSE,4.6,-,N/A,,Clear,150,2013-12-03 12:39:00
6:53 AM,42.1,41.0,96,29.62,5.0,SSE,6.9,-,N/A,Fog,Patches of Fog,160,2013-12-03 12:53:00
7:00 AM,42.1,41.0,96,29.62,5.0,South,6.9,-,N/A,Fog,Patches of Fog,170,2013-12-03 13:00:00
7:18 AM,43.0,41.0,93,29.62,2.5,South,4.6,-,N/A,Fog,Patches of Fog,180,2013-12-03 13:18:00
7:53 AM,43.0,43.0,100,29.63,1.0,Calm,Calm,-,N/A,Fog,Patches of Fog,0,2013-12-03 13:53:00
8:09 AM,39.9,39.9,100,29.63,0.2,Calm,Calm,-,N/A,Fog,Fog,0,2013-12-03 14:09:00
8:36 AM,43.0,42.1,97,29.64,0.2,Calm,Calm,-,N/A,Fog,Fog,0,2013-12-03 14:36:00
8:49 AM,46.4,46.4,100,29.64,1.0,Calm,Calm,-,N/A,,Mist,0,2013-12-03 14:49:00
8:53 AM,46.9,46.0,97,29.64,6.0,Variable,3.5,-,N/A,,Clear,0,2013-12-03 14:53:00
9:53 AM,53.1,48.9,86,29.64,7.0,South,8.1,-,N/A,,Clear,180,2013-12-03 15:53:00
10:53 AM,57.9,48.9,72,29.63,10.0,South,11.5,-,N/A,,Clear,170,2013-12-03 16:53:00
11:53 AM,62.1,48.9,62,29.61,10.0,South,8.1,-,N/A,,Clear,190,2013-12-03 17:53:00
12:53 PM,63.0,46.9,56,29.57,10.0,SSW,5.8,-,N/A,,Clear,210,2013-12-03 18:53:00
1:53 PM,64.9,46.9,52,29.53,10.0,SE,5.8,-,N/A,,Clear,130,2013-12-03 19:53:00
2:53 PM,64.9,45.0,48,29.54,10.0,Calm,Calm,-,N/A,,Clear,0,2013-12-03 20:53:00
3:53 PM,64.9,45.0,48,29.55,10.0,SSE,5.8,-,N/A,,Clear,150,2013-12-03 21:53:00
4:53 PM,62.1,44.1,52,29.54,10.0,East,3.5,-,N/A,,Clear,90,2013-12-03 22:53:00
5:53 PM,57.0,46.0,67,29.55,10.0,ESE,5.8,-,N/A,,Clear,120,2013-12-03 23:53:00
6:53 PM,53.1,46.0,77,29.56,10.0,ESE,8.1,-,N/A,,Clear,110,2013-12-04 00:53:00
7:53 PM,52.0,46.9,83,29.57,10.0,ESE,9.2,-,N/A,,Clear,120,2013-12-04 01:53:00
8:53 PM,52.0,48.0,86,29.58,10.0,SSE,6.9,-,N/A,,Clear,150,2013-12-04 02:53:00
9:53 PM,54.0,50.0,86,29.60,10.0,South,13.8,-,N/A,,Mostly Cloudy,180,2013-12-04 03:53:00
10:53 PM,54.0,51.1,90,29.60,9.0,South,8.1,-,N/A,,Overcast,180,2013-12-04 04:53:00
11:35 PM,51.1,48.9,92,29.60,8.0,SSE,6.9,-,N/A,,Mostly Cloudy,160,2013-12-04 05:35:00
11:48 PM,51.8,48.2,88,29.60,9.0,SSE,6.9,-,N/A,,Scattered Clouds,160,2013-12-04 05:48:00
11:53 PM,52.0,48.9,89,29.59,9.0,SSE,4.6,-,N/A,,Partly Cloudy,150,2013-12-04 05:53:00